Wind_Speed
14 16 16 16 17 18 19 19 18 16 14 11 8 7 5 8 12 10 10 13 18 20 20 19 17 15 18 9 8 8 4 6 10 14 17 15 17 11 10 13 19 11 14 17 28
14 16 17 17 17 18 18 19 18 14 10 7 6 8 7 10 15 11 11 16 19 22 18 18 13 13 8 12 3 6 8 15 17 13 17 13 3 13 13 14 12 13 18 20 22
15 17 18 18 18 18 19 17 14 10 8 7 7 8 10 6 9 9 18 19 21 23 19 21 17 13 16 9 9 5 11 16 17 13 13 10 10 7 15 11 8 10 17 11 16
16 18 18 19 18 18 19 16 10 7 8 6 7 8 9 6 4 17 20 23 24 22 17 15 10 15 10 12 9 9 15 14 16 15 15 6 5 7 12 15 5 9 13 9 14
17 19 19 20 19 20 19 12 6 5 5 5 6 9 10 2 9 21 19 23 24 16 15 12 12 13 9 16 14 15 14 14 11 13 13 16 13 11 13 14 9 8 11 12 9
18 20 20 20 18 21 20 7 4 4 5 5 7 12 7 6 15 21 21 24 25 16 13 11 7 10 10 13 11 11 12 15 16 17 17 16 15 14 16 10 12 12 8 7 5
18 19 20 21 17 20 14 5 2 5 6 6 6 6 8 6 17 18 22 26 25 16 9 12 11 7 11 13 8 15 18 14 16 17 10 13 16 17 16 12 13 9 5 3 8
18 18 20 21 16 19 10 6 5 5 2 9 6 7 1 10 24 17 25 31 28 15 8 10 9 9 10 13 17 16 3 6 14 8 6 8 9 12 14 12 12 5 5 4 9
18 18 21 21 15 19 5 7 9 5 7 6 7 3 2 17 32 20 30 30 28 10 11 7 6 7 9 9 5 4 10 15 9 11 5 11 8 6 7 8 11 6 7 7 11
17 17 20 21 13 19 4 5 4 10 5 4 6 2 7 16 28 17 36 35 11 12 11 5 4 5 6 7 8 12 14 11 12 6 6 7 11 1 8 3 5 4 2 7 7
17 16 20 20 12 16 10 7 4 2 12 6 3 1 11 21 15 24 36 34 16 10 5 3 5 9 11 10 8 12 13 11 10 3 3 5 8 5 6 5 5 4 5 6 2
17 15 20 18 10 18 7 5 4 2 1 2 6 3 17 21 8 18 33 12 10 9 14 3 7 13 14 9 12 13 9 8 10 10 7 7 10 9 8 8 2 7 6 6 6
18 14 18 14 7 8 13 8 3 3 3 3 2 5 13 15 6 20 23 11 11 11 12 7 12 13 16 8 13 11 11 11 14 18 14 11 6 9 7 7 10 13 10 9 8
16 11 16 11 4 6 5 6 2 2 1 7 8 6 13 12 3 19 27 8 6 9 10 4 11 14 15 14 15 12 12 13 15 11 4 10 3 6 9 12 16 16 14 13 11
16 9 15 11 5 4 6 4 2 2 2 9 5 5 11 14 8 16 28 6 9 10 4 8 9 11 12 14 15 7 18 12 12 8 4 3 2 5 8 11 17 15 16 17 15
14 6 11 4 2 5 4 2 2 0 3 5 5 12 13 14 9 12 11 14 11 6 10 9 7 5 9 16 7 15 11 10 9 2 1 6 2 9 7 12 17 15 18 20 24
10 4 11 5 3 6 1 4 2 6 5 9 6 10 7 10 10 15 11 21 14 9 9 12 8 6 16 12 9 18 10 4 3 2 1 8 8 7 12 15 13 13 16 17 19
5 3 7 11 6 3 3 1 8 2 4 6 6 13 5 10 7 13 7 8 15 9 3 7 7 14 13 10 9 9 5 3 4 4 2 7 4 4 11 14 14 13 13 18 20
3 4 1 13 7 3 1 6 1 4 3 8 7 4 5 11 9 8 7 6 9 12 5 8 5 12 16 11 12 8 5 5 4 8 3 4 5 5 19 19 25 21 20 18 18
2 2 3 11 6 2 4 4 2 4 4 4 5 6 5 8 7 7 8 2 5 10 4 3 6 8 11 9 9 8 11 4 3 5 3 4 5 8 21 22 23 23 22 23 20
1 2 4 5 8 4 4 3 4 4 5 5 4 4 4 4 4 5 6 2 10 7 4 3 1 8 5 7 10 6 6 5 4 3 3 2 4 8 13 14 16 18 18 19 20
2 0 7 5 4 2 2 3 1 3 2 2 1 3 2 5 3 2 5 4 9 10 5 4 1 5 2 3 11 11 11 6 3 5 4 2 3 8 12 11 11 18 18 19 19
1 2 5 4 3 2 3 4 4 2 3 3 2 3 2 3 2 5 5 6 7 8 6 6 3 5 7 4 7 5 16 13 10 5 7 4 3 11 12 15 15 16 18 18 20
1 2 3 4 1 4 4 3 4 2 2 1 1 3 4 4 2 3 6 5 5 6 10 6 2 2 2 4 3 5 11 11 8 4 6 4 5 16 19 19 18 17 19 17 17
2 1 1 2 3 5 4 2 5 3 1 1 3 2 3 1 3 2 5 6 5 9 6 3 3 5 9 10 5 6 10 12 8 10 5 10 3 12 17 16 15 14 17 19 20
3 3 3 3 5 3 1 1 4 3 2 3 1 4 3 3 3 3 3 2 3 6 3 5 3 6 3 6 1 4 11 12 5 9 6 9 2 16 14 13 10 14 17 17 18
4 3 4 2 2 1 2 4 3 4 0 2 2 3 4 2 6 6 5 6 6 4 5 4 4 4 3 3 1 4 6 5 6 5 6 7 10 17 17 17 10 14 15 16 17
Wind_Direction
0 357 354 352 352 349 348 345 343 341 342 343 346 346 312 295 305 300 27 341 335 332 327 320 325 334 315 276 270 235 236 281 268 278 289 303 329 300 274 257 294 304 298 317 335
357 355 353 353 352 349 347 347 347 348 351 356 354 351 326 298 317 59 3 345 338 335 323 328 318 316 302 304 304 262 262 267 275 298 288 286 330 312 295 295 301 320 299 308 314
355 357 355 352 351 349 348 349 353 0 2 5 348 337 337 328 290 26 358 343 334 328 311 307 305 315 293 305 311 295 273 273 275 291 280 312 313 335 312 284 299 292 306 303 319
357 355 355 353 350 349 348 348 357 6 359 352 347 338 316 313 355 353 340 339 333 329 315 310 323 305 322 304 319 307 287 273 280 277 287 232 266 260 265 285 261 268 307 296 278
355 356 357 355 350 350 348 348 2 355 353 335 338 341 334 220 1 332 338 333 330 330 323 322 310 331 318 310 312 293 287 295 292 299 290 290 249 246 247 260 253 219 281 249 296
353 355 357 357 352 351 347 354 9 7 351 327 312 335 308 42 346 334 337 336 334 320 320 310 329 326 288 300 302 284 297 291 291 276 267 257 260 247 258 245 251 242 223 202 2
353 353 355 357 351 353 351 350 333 10 6 344 342 334 285 17 348 344 334 340 327 311 313 317 329 308 304 303 295 301 288 295 261 249 237 240 247 252 257 245 268 238 208 355 331
353 353 353 357 350 354 348 331 298 276 296 21 352 311 256 32 355 349 343 340 335 315 283 289 281 283 268 261 282 274 355 302 304 213 256 188 255 249 234 233 244 164 111 359 281
353 354 352 355 351 355 356 75 45 356 286 298 318 278 28 348 353 331 355 336 316 301 290 258 271 270 297 335 351 1 331 340 348 297 333 236 255 304 298 248 213 165 160 176 228
356 353 352 352 354 353 287 266 342 16 306 266 332 248 21 343 334 343 347 337 304 274 264 220 209 272 352 347 344 321 317 320 321 10 347 277 264 107 358 262 118 160 157 198 215
357 354 352 351 2 3 13 286 250 173 39 56 19 26 335 342 332 8 353 333 352 317 359 330 21 4 328 317 316 295 294 296 325 294 289 296 269 136 95 25 86 58 12 314 244
355 355 354 354 14 15 22 50 44 346 115 91 31 267 341 336 315 358 1 4 333 342 359 88 22 347 321 344 333 337 331 345 307 325 303 323 298 136 150 153 206 56 357 319 327
356 356 357 2 26 35 58 47 356 348 292 86 8 6 331 340 7 10 7 338 345 345 354 321 18 348 340 9 355 340 333 334 313 315 291 240 256 158 110 34 38 30 347 341 338
353 354 1 356 25 352 52 355 355 334 182 6 2 25 347 337 50 2 14 339 359 336 338 339 10 359 354 358 345 320 337 319 305 317 328 345 132 25 45 20 26 5 350 339 328
350 353 6 36 335 35 324 345 317 260 77 348 12 326 342 33 343 346 25 347 18 321 321 326 347 337 350 332 316 294 313 313 285 278 330 21 200 354 26 6 5 354 349 345 341
349 7 13 14 70 6 329 320 281 55 0 23 20 354 0 17 24 342 40 12 52 320 350 341 277 7 345 322 326 342 333 295 263 238 328 40 30 39 19 359 346 349 349 344 332
352 8 26 20 4 340 0 246 31 66 350 337 340 338 9 358 10 356 26 37 34 359 10 323 16 17 12 347 345 347 344 334 351 6 162 137 70 50 8 4 344 345 348 338 334
3 21 26 8 357 18 273 351 62 247 14 5 336 313 60 30 355 350 18 22 29 21 300 356 343 5 356 354 326 322 331 20 310 347 180 69 72 66 24 5 348 353 344 352 344
21 53 90 344 4 44 276 49 66 25 342 342 301 16 1 23 342 4 48 20 24 20 29 355 302 330 349 327 16 330 14 279 264 229 293 83 17 261 1 1 5 357 356 347 338
320 251 61 357 17 345 65 104 80 40 354 328 24 24 351 357 15 17 360 20 3 3 108 316 293 295 327 0 11 26 356 343 319 338 340 100 70 357 358 356 352 357 353 338 345
241 260 2 31 32 41 77 73 103 61 15 19 8 349 358 360 345 345 345 96 23 334 354 309 162 302 318 24 351 354 12 348 277 308 307 73 69 9 355 355 348 350 346 343 349
276 45 358 41 49 15 55 68 56 86 71 80 343 333 347 328 357 310 358 55 17 357 5 17 302 282 323 55 30 57 7 349 329 332 294 12 83 360 356 348 342 359 348 351 353
326 75 11 73 89 103 142 92 64 104 46 17 60 18 332 306 2 348 354 50 39 18 9 331 342 321 348 340 25 14 0 346 303 246 11 360 66 7 356 355 358 2 355 356 358
132 56 19 45 47 111 136 112 120 45 105 9 327 227 30 336 27 306 335 17 13 25 6 335 290 146 265 287 311 347 351 3 342 26 326 35 359 350 356 354 352 1 359 358 2
27 91 78 66 42 91 79 189 135 143 125 278 218 58 29 6 288 347 10 338 334 28 13 46 289 356 293 273 210 43 10 2 30 353 40 323 61 360 349 343 340 2 357 1 2
126 132 53 73 117 122 347 291 139 131 168 153 209 359 337 169 172 245 41 315 309 355 36 342 299 322 289 207 243 98 20 357 31 2 348 336 12 359 336 336 3 8 0 0 357
93 81 99 167 129 180 135 156 141 136 215 42 350 326 301 8 349 313 309 284 282 312 335 339 334 326 290 11 99 108 358 339 340 38 335 14 327 333 338 341 0 15 360 356 350
Height
831 828 825 821 818 815 812 809 807 804 803 801 799 797 795 793 790 789 790 793 789 785 782 776 774 771 767 762 760 761 773 767 757 752 741 730 736 735 733 734 726 718 712 715 711
831 827 824 820 817 814 810 808 806 804 802 800 799 798 796 793 791 788 793 791 787 783 779 775 771 768 765 760 759 761 767 758 747 741 742 736 743 740 736 730 730 724 719 715 717
830 827 824 820 816 813 810 807 805 803 802 801 800 797 795 794 793 790 792 790 786 783 779 775 770 765 762 756 756 757 760 750 745 745 744 747 743 739 737 730 728 737 728 726 718
829 827 823 819 816 813 809 806 804 803 803 801 799 797 795 795 794 792 791 788 785 780 776 772 769 767 763 759 754 757 750 746 742 739 740 746 744 739 738 730 724 725 726 730 732
828 825 822 818 816 813 808 805 804 802 802 802 801 799 795 793 795 793 789 786 782 778 775 770 769 767 765 762 756 754 746 742 737 736 738 734 732 736 733 729 721 724 731 729 725
829 825 822 818 815 811 808 805 804 802 802 801 800 799 796 796 797 792 789 785 781 777 773 771 768 768 765 759 757 749 745 742 739 737 735 734 727 725 712 718 717 717 727 725 723
828 825 822 818 814 810 807 806 804 803 802 800 800 799 798 799 796 792 789 784 779 775 773 772 770 769 764 759 747 747 747 741 731 728 729 727 728 721 714 717 715 710 711 714 723
828 824 821 817 814 810 807 806 805 803 802 801 800 800 794 797 796 792 788 781 776 772 770 769 768 767 763 752 745 742 752 748 741 719 719 723 727 709 707 712 712 714 717 722 729
827 823 820 816 813 810 807 805 803 802 801 801 800 800 795 796 793 791 787 781 774 769 767 765 766 765 758 749 752 763 752 742 729 733 727 723 721 710 703 702 709 713 718 724 732
825 822 819 816 812 809 807 805 805 803 801 802 800 802 799 801 795 790 786 777 769 765 761 764 762 767 760 762 769 762 756 744 731 732 730 724 718 712 714 710 713 719 716 722 725
825 822 819 815 812 809 805 805 806 806 807 812 814 812 808 805 797 792 785 774 767 758 764 758 777 776 765 758 755 752 747 741 728 724 730 719 713 713 718 721 720 720 719 717 715
825 822 819 816 814 812 808 809 817 820 812 812 812 811 809 804 796 795 791 785 776 772 766 763 769 766 757 751 754 749 743 744 728 718 719 721 714 715 720 723 720 722 723 724 719
824 822 819 816 815 815 816 817 819 819 815 810 811 810 806 802 801 800 796 791 784 779 779 774 771 763 757 756 759 757 758 748 744 728 715 712 713 719 721 722 721 730 729 722 717
823 821 817 815 817 816 818 818 819 819 816 815 812 814 808 800 803 805 802 801 792 793 784 772 772 772 765 763 761 768 751 746 741 740 738 718 725 736 736 737 730 733 726 722 719
823 821 819 813 816 818 821 818 819 819 799 815 816 816 811 815 818 812 808 800 804 803 791 786 777 780 775 771 763 761 751 744 738 744 741 734 732 749 747 746 745 741 736 727 719
823 820 818 818 817 819 819 819 821 814 833 820 821 822 816 819 817 813 814 809 805 801 797 786 774 773 777 764 754 756 754 743 734 746 763 740 732 752 757 767 760 752 746 734 730
822 820 817 819 821 819 820 820 818 828 817 832 833 827 820 827 822 817 826 829 838 841 831 801 778 774 774 772 762 765 765 780 781 779 755 736 741 773 777 779 776 764 759 749 736
822 820 820 819 819 819 822 820 829 834 833 834 834 827 828 835 835 828 828 842 840 844 844 832 820 791 780 783 783 771 772 775 784 762 748 723 748 777 785 785 780 773 767 754 744
823 821 823 821 818 820 822 837 851 846 849 849 835 831 831 838 846 840 843 854 847 845 863 845 823 800 787 780 781 785 790 774 773 760 752 748 768 766 777 777 772 772 762 760 750
823 823 823 821 819 823 830 848 850 852 853 850 851 847 846 849 855 850 849 851 852 846 843 844 844 802 798 785 786 785 787 788 778 766 740 757 776 789 790 790 785 777 772 763 752
822 821 824 820 820 828 844 850 853 858 857 859 858 856 852 856 852 854 853 843 848 848 842 847 856 829 799 809 805 801 815 801 792 774 759 749 791 806 808 806 798 792 782 772 760
821 824 824 820 832 846 850 848 855 858 857 858 857 856 857 854 858 856 850 850 848 847 855 849 857 852 813 806 804 802 820 814 805 790 784 761 805 816 814 808 804 798 790 779 768
822 823 823 820 838 852 853 855 856 856 861 858 858 861 857 858 874 853 850 846 849 853 856 856 857 854 837 822 812 818 825 821 810 797 798 780 800 819 817 811 805 801 796 785 776
825 832 830 831 842 844 851 854 860 861 862 860 860 857 863 863 857 863 856 850 850 853 849 850 853 859 863 852 843 848 841 830 822 808 812 811 809 821 817 815 808 804 799 793 786
823 833 832 840 851 850 853 851 855 860 860 860 859 857 862 893 876 868 861 862 853 854 859 863 863 847 844 836 833 843 846 839 844 834 827 829 826 833 829 824 817 814 806 797 791
825 832 837 846 848 853 855 857 851 861 858 858 862 859 859 877 869 880 870 865 862 860 871 864 865 854 849 826 830 840 852 848 845 843 836 827 825 838 834 829 821 820 813 809 802
822 825 829 850 849 851 854 857 856 860 860 858 861 863 860 861 864 864 863 864 866 870 866 865 864 864 852 827 845 847 864 865 851 855 854 849 851 841 834 830 827 827 822 815 811